Probability
0 0 0 0 0 0 0 0 0 0 0 0 0 0 0 0 0 0 0 0 0 0 0 0 0 0 0 0 0 0 0 0 0 0 0 0 0 0 0 0 0 0 0
0 0 0 0 0 0 0 0 0 0 0 0 0 0 0 0 0 0 0 0 0 0 0 0 0 0 0 0 0 0 0 0 0 0 0 0 0 0 0 0 0 0 0
0 0 0 0 0 0 0 0 0 0 0 0 0 0 0 0 0 0 0 0 0 0 0 0 0 0 0 0 0 0 0 0 0 0 0 0 0 0 0 0 0 0 0
0 0 0 0 0 0 0 0 0 0 0 0 0 0 0 0 0 0 0 0 0 0 0 0 0 0 0 0 0 0 0 0 0 0 0 0 0 0 0 0 0 0 0
0 0 0 0 0 0 0 0 0 0 0 0 0 0 0 0 0 0 0 0 0 0 0 0 0 0 0 0 0 0 0 0 0 0 0 0 0 0 0 0 0 0 0
0 0 0 0 0 0 0 0 0 0 0 0 0 0 0 0 0 0 0 0 0 0 0 0 0 0 0 0 0 0 0 0 0 0 0 0 0 0 0 0 0 0 0
0 0 0 0 0 0 0 0 0 0 0 0 0 0 0 0 0 0 0 0 0 0 0 0 0 0 0 0 0 0 0 0 0 0 0 0 0 0 0 0 0 0 0
0 0 0 0 0 0 0 0 0 0 0 0 0 0 0 0 0 0 0 0 0 0 0 0 0 0 0 0 0 0 0 0 0 0 0 0 0 0 0 0 0 0 0
0 0 0 0 0 0 0 0 0 0 0 0 0 0 0 0 0 0 0 0 0 0 0 0 0 0 0 0 0 0 0 0 0 0 0 0 0 0 0 0 0 0 0
0 0 0 0 0 0 0 0 0 0 0 0 0 0 0 0 0 0 0 0 0 0 0 0 0 0 0 0 0 0 0 0 0 0 0 0 0 0 0 0 0 0 0
0 0 0 0 0 0 0 0 0 0 0 0 0 0 0 0 0 0 0 0 0 0 0 0 0 0 0 0 0 0 0 0 0 0 0 0 0 0 0 0 0 0 0
0 0 0 0 0 0 0 0 0 0 0 0 0 0 0 0 0 0 0 0 0 0 0 0 0 0 0 0 0 0 0 0 0 0 0 0 0 0 0 0 0 0 0
0 0 0 0 0 0 0 0 0 0 0 0 0 0 0 0 0 0 0 0 0 0 0 0 0 0 0 0 0 0 0 0 0 0 0 0 0 0 0 0 0 0 0
0 0 0 0 0 0 0 0 0 0 0 0 0 0 0 0 0 0 0 0 0 0 0 0 0 0 0 0 0 0 0 0 0 0 0 0 0 0 0 0 0 0 0
0 0 0 0 0 0 0 0 0 0 0 0 0 0 0 0 0 0 0 0 0 0 0 0 0 0 0 0 0 0 0 0 0 0 0 0 0 0 0 0 0 0 0
0 0 0 0 0 0 0 0 0 0 0 0 0 0 0 0 0 0 0 0 0 0 0 0 0 0 0 0 0 0 0 0 0 0 0 0 0 0 0 0 0 0 0
0 0 0 0 0 0 0 0 0 0 0 0 0 0 0 0 0 0 0 0 0 0 0 0 0 0 0 0 0 0 0 0 0 0 0 0 0 0 0 0 0 0 0
0 0 0 0 0 0 0 0 0 0 0 0 0 0 0 0 0 0 0 0 0 0 0 0 0 0 0 0 0 0 0 0 0 0 0 0 0 0 0 0 0 0 0
0 0 0 0 0 0 0 0 0 0 0 0 0 0 0 0 0 0 0 0 0 0 0 0 0 0 0 0 0 0 0 0 0 0 0 0 0 0 0 0 0 0 0
0 0 0 0 0 0 0 0 0 0 0 0 0 0 0 0 0 0 0 0 0 0 0 0 0 0 0 0 0 0 0 0 0 0 0 0 0 0 0 0 0 0 0
0 0 0 0 0 0 0 0 0 0 0 0 0 0 0 0 0 0 0 0 0 0 0 0 0 0 0 0 0 0 0 0 0 0 0 0 0 0 0 0 0 0 0
0 0 0 0 0 0 0 0 0 0 0 0 0 0 0 0 0 0 0 0 0 0 0 0 0 0 0 0 0 0 0 0 0 0 0 0 0 0 0 0 0 0 0
0 0 0 0 0 0 0 0 0 0 0 0 0 0 0 0 0 0 0 0 0 0 0 0 0 0 0 0 0 0 0 0 0 0 0 0 0 0 0 0 0 0 0
0 0 0 0 0 0 0 0 0 0 0 0 0 0 0 0 0 0 0 0 0 0 0 0 0 0 0 0 0 0 0 0 0 0 0 0 0 0 0 0 0 0 0
0 0 0 0 0 0 0 0 0 0 0 0 0 0 0 0 0 0 0 0 0 0 0 0 0 0 0 0 0 0 0 0 0 0 0 0 0 0 0 0 0 0 0
0 0 0 0 0 0 0 0 0 0 0 0 0 0 0 0 0 0 0 0 0 0 0 0 0 0 0 0 0 0 0 0 0 0 0 0 0 0 0 0 0 0 0
Wind_Speed
10 10 9 9 8 9 8 8 7 7 7 7 7 7 6 6 5 5 5 5 5 4 4 5 5 5 4 4 4 4 5 5 10 10 7 8 10 13 13 13 13 13 12
9 10 10 9 9 10 9 8 8 7 6 6 6 6 6 5 5 5 4 4 4 5 5 6 7 6 7 6 5 6 6 6 8 13 11 10 12 13 14 14 13 12 11
9 10 10 10 10 9 8 7 7 7 6 5 5 5 5 4 4 3 3 3 4 4 5 6 8 8 8 7 8 7 7 7 8 11 13 11 11 11 12 12 13 11 12
10 10 10 9 8 8 7 6 6 5 5 5 4 4 4 3 3 3 3 3 4 6 6 7 8 8 9 9 8 8 8 9 10 10 11 11 11 11 9 9 10 8 9
10 10 9 8 7 7 7 6 6 5 5 5 5 4 3 2 1 2 2 4 5 7 8 8 8 12 13 10 9 9 9 9 9 9 10 10 10 9 8 7 9 9 10
10 9 8 7 7 7 6 6 6 6 5 5 5 4 3 3 4 5 4 3 6 7 9 9 10 10 11 14 15 16 16 13 12 11 10 10 12 11 9 8 8 8 6
8 7 7 6 6 6 6 6 5 5 4 4 4 4 3 4 6 6 9 5 7 7 8 8 8 9 12 9 13 17 17 19 18 13 12 11 12 11 10 9 8 8 8
7 6 5 6 6 5 5 5 4 3 3 3 3 3 2 3 5 7 10 7 7 8 8 9 9 10 10 11 12 12 12 13 14 10 9 10 10 9 8 7 8 8 8
5 4 4 5 6 5 5 4 3 3 3 2 2 2 2 3 6 8 9 7 7 9 9 9 10 10 12 14 13 12 13 11 12 13 13 12 12 11 8 6 6 6 7
4 4 4 5 5 5 4 3 3 3 3 2 3 3 3 4 8 10 10 5 7 8 9 9 12 12 14 16 11 10 11 10 11 11 10 9 8 8 8 6 5 6 5
4 5 5 5 5 4 4 3 3 3 3 3 3 4 4 5 8 10 11 6 7 8 8 8 8 13 16 16 13 9 11 12 9 9 7 6 6 5 5 5 5 4 4
5 6 5 4 4 4 4 3 3 3 3 3 4 5 4 5 6 8 12 11 10 7 8 8 9 15 16 15 11 11 14 11 6 6 6 5 5 5 5 6 6 5 4
5 5 4 4 4 3 3 3 2 2 1 2 2 4 5 5 6 9 11 14 15 9 8 13 15 15 14 10 11 14 10 6 5 6 6 5 5 5 5 5 5 5 4
5 4 3 3 2 2 1 1 1 0 0 1 2 4 5 6 6 7 8 8 11 9 9 11 14 12 10 10 9 8 6 6 5 5 5 5 5 5 5 4 4 5 4
5 3 2 2 2 1 1 1 2 3 3 2 2 3 5 6 7 11 8 7 7 7 8 6 5 7 8 8 8 7 6 6 6 5 5 5 5 5 5 5 4 4 4
4 2 2 2 1 1 1 2 3 4 5 5 5 5 5 6 10 11 11 12 12 12 7 5 6 7 7 7 8 7 6 7 6 5 5 5 5 6 6 5 4 5 5
3 3 2 2 2 2 1 1 3 3 4 4 5 6 6 9 9 10 11 12 9 8 5 5 6 7 7 7 7 7 6 7 7 6 5 5 5 5 5 6 6 6 6
2 3 2 2 2 2 2 1 1 1 2 3 4 6 9 10 10 9 10 8 6 6 5 5 6 7 7 7 7 7 7 7 7 7 6 5 5 4 5 5 6 7 7
2 2 2 2 2 1 1 1 1 0 1 2 3 5 8 9 8 7 7 4 5 5 6 6 6 6 7 7 7 7 7 7 7 7 6 6 4 4 4 5 5 8 7
3 4 3 1 1 0 1 1 1 1 1 2 3 4 6 5 4 5 4 4 5 5 5 6 6 7 7 7 7 7 7 7 7 6 6 5 4 4 5 6 6 6 6
1 1 1 1 1 1 1 1 1 1 1 1 2 4 7 4 5 5 5 5 5 5 6 6 6 7 7 7 7 8 8 7 6 6 6 5 4 4 4 5 6 7 7
0 1 1 1 2 2 2 1 1 1 1 1 2 4 7 5 4 5 5 5 5 5 5 5 5 5 6 6 7 7 7 7 7 7 6 5 5 5 5 6 7 7 7
2 2 3 2 2 3 3 2 2 1 1 2 3 4 4 4 5 5 5 6 6 6 6 6 6 6 6 6 5 5 6 7 6 6 5 4 4 5 6 8 9 8 8
3 3 3 3 3 3 2 2 2 2 2 2 3 3 4 4 5 6 6 6 6 6 6 6 6 8 11 9 6 6 5 7 6 4 3 3 4 5 6 7 7 8 8
3 3 3 3 3 2 2 2 2 2 2 2 3 3 4 5 5 6 6 7 8 7 9 8 7 8 11 12 11 10 10 10 6 3 2 4 6 6 5 6 5 5 4
4 4 3 3 2 2 2 3 3 3 3 3 3 4 4 5 5 6 7 7 8 7 8 7 10 11 12 10 11 12 10 9 8 7 4 4 5 5 4 4 4 3 3
Wind_Direction
86 88 91 90 92 94 93 92 91 87 89 91 94 93 90 86 83 84 77 62 49 25 6 347 328 318 307 302 294 282 271 265 284 293 283 283 282 285 290 289 288 287 284
92 92 89 89 89 88 88 88 90 90 91 99 103 102 98 92 85 82 70 53 34 10 349 337 325 321 309 299 291 285 282 273 278 295 300 296 287 283 283 284 287 285 283
93 93 89 87 89 91 92 92 93 94 93 93 98 101 101 96 83 70 60 39 13 348 332 323 316 314 306 301 296 289 283 284 279 290 298 297 292 289 289 286 285 282 282
92 92 91 92 94 95 95 91 88 90 90 86 88 93 93 84 68 48 31 10 346 330 320 312 307 302 294 294 296 293 292 292 290 290 293 296 294 293 288 288 291 286 284
93 92 91 92 93 91 87 84 82 81 82 80 78 71 58 41 26 23 2 344 330 323 320 316 309 306 309 310 310 306 302 297 297 294 293 295 294 295 292 287 290 293 285
92 94 94 92 91 89 87 85 81 72 66 63 56 45 28 17 9 18 8 334 322 319 318 318 314 309 314 316 315 312 309 306 302 295 293 292 295 296 294 290 290 293 289
92 92 93 93 92 92 95 85 76 67 62 55 41 33 24 10 30 21 3 347 323 316 313 312 313 311 315 308 312 312 308 303 299 296 294 295 297 300 298 295 291 291 289
88 86 94 100 99 93 87 80 70 61 56 47 34 28 33 23 22 5 350 341 324 319 314 307 305 307 309 316 318 311 307 304 300 298 291 293 296 298 296 293 293 291 285
93 94 100 108 105 98 90 79 63 60 48 36 30 27 16 340 341 343 347 333 325 322 318 315 314 311 310 316 319 311 308 307 310 305 300 298 299 300 301 302 304 309 310
90 97 102 106 107 102 93 74 57 63 53 42 29 6 343 326 328 337 343 332 326 324 320 318 317 313 314 318 318 310 309 314 316 314 311 311 309 308 308 304 306 308 312
100 99 96 95 99 98 83 69 73 70 53 30 7 344 337 329 330 334 339 339 327 321 319 320 316 313 314 315 314 306 306 311 308 308 310 309 312 316 319 313 304 301 304
107 102 99 95 95 100 95 83 71 67 50 19 356 345 338 334 330 331 334 336 335 325 320 316 312 313 316 316 316 311 313 315 312 316 319 321 320 324 325 320 312 303 287
109 106 102 95 90 105 113 106 78 58 43 0 347 339 333 334 332 334 336 336 338 335 319 317 318 318 322 322 320 320 322 321 322 328 334 334 330 324 323 323 323 321 304
125 122 116 113 109 104 112 134 147 189 305 319 323 324 324 328 335 340 337 332 332 332 325 318 318 320 328 329 328 330 331 328 327 328 332 332 336 341 342 341 335 337 336
131 134 133 142 165 195 240 235 232 236 225 247 283 293 311 322 323 324 327 327 325 322 320 319 332 338 342 341 338 337 338 340 344 343 339 341 347 354 354 350 350 347 356
136 154 181 201 217 230 277 308 285 271 285 275 275 287 294 296 314 326 332 333 333 334 336 338 339 339 339 337 336 336 338 345 344 341 343 350 357 3 3 3 5 10 13
166 188 205 219 229 237 243 276 314 336 355 3 346 341 335 331 335 337 338 334 334 344 348 340 337 336 336 334 335 338 338 339 339 340 343 349 360 10 14 16 17 18 19
186 207 212 228 235 235 234 239 249 304 337 340 336 335 342 341 340 342 343 343 347 352 345 339 336 334 334 334 336 338 338 340 343 344 347 353 6 19 25 26 27 26 23
207 222 228 235 233 230 221 208 191 219 343 334 331 334 341 338 337 344 352 355 339 339 338 336 334 332 333 334 336 337 339 341 344 344 348 355 5 22 33 33 38 34 33
237 240 221 213 209 162 155 147 120 87 27 353 343 338 339 342 345 343 347 342 339 336 334 333 331 331 332 333 335 338 341 344 347 348 347 354 8 29 41 42 42 44 40
254 274 205 155 134 132 122 116 110 99 52 354 337 335 348 344 342 342 343 341 338 335 333 330 329 330 333 334 334 337 339 340 344 346 350 357 11 35 46 50 49 53 53
104 100 94 98 97 93 96 96 102 96 63 11 349 345 353 356 350 347 345 342 339 334 331 328 327 328 329 328 327 329 330 335 341 344 348 359 18 43 54 57 59 62 61
93 95 86 79 82 92 85 81 83 81 58 23 3 358 358 356 352 349 345 342 340 341 343 342 337 335 333 323 316 312 314 320 320 320 332 1 36 59 64 68 70 71 68
85 93 94 88 84 86 84 78 73 73 65 36 17 8 360 353 350 348 346 344 345 347 349 348 343 338 338 335 327 322 319 316 311 308 330 43 71 81 81 80 79 82 80
76 84 88 88 89 90 87 80 71 68 60 42 23 9 358 355 352 350 348 349 349 350 352 352 348 344 341 340 341 339 335 339 353 5 50 78 87 92 96 95 94 94 89
69 75 76 77 82 89 93 87 77 73 62 46 30 17 7 1 354 351 350 353 351 350 351 350 349 350 349 346 343 341 346 360 13 24 52 77 81 86 95 94 97 92 83